Nashville International Airport
KBNA : now visible

Airfield :











YOU CAN JOIN US ON...

 
LOGIN :

Register | Disclaimer

   EN    FR    IT 

 









Legend :    VFR   Marginal VFR   IFR   Intensive IFR   Very Intensive IFR
Visi :
Ceiling :
>= 8 km
>= 3000ft
5 to 8 km
1000 to 3000 ft
1500m to 5 km
500 to 1000 ft
800 to 1500m
200 to 500 ft
< 800m
< 200 ft
Symbols :   Thunderstorms  Fog  Heavy snow  Heavy precipitations  Wind > 20 kt






- Airport Elevation : 599 ft
- IATA code : BNA


KBNA - Nashville International

CURRENT METAR :
  • 232253Z 09004KT 10SM BKN065 BKN085 BKN250 19/10 A3002 RMK AO2 SLP163 T01890100

EXPIRED METARs :
  • 232153Z 05004KT 10SM BKN065 BKN220 21/10 A3002 RMK AO2 SLP164 T02060100
  • 232053Z 08003KT 10SM FEW060 BKN075 BKN100 BKN250 21/09 A3003 RMK AO2 SLP166 T02060094 56014

TAF KBNA
Valid from the 24 at 00:00 until the 25 at 00:00 UTC


232326Z 2400/2424 15005KT P6SM BKN080
FM241000 17005KT P6SM BKN040 BKN100
FM241600 18012G22KT P6SM SCT050 SCT120
KZME FIR / North America



MET'MAP, your aeronautical weather chart ! - Copyright ORBIFLY December 2007 - Disclaimer

ORBIFLY MET'MAP TEAM :

Programming & Development : Alexandra Zaïnal
Concept & original design : Baudouin d'Aumeries
Assistance for programming : Marc-Olivier Méhu
Technical & hardware support : Manuel Goepfert

Contact : metmap@orbifly.com




SOURCES & CREDITS :

   NOAA       Earth
Advisory